Weather History for Melbourne, FL

Change the Weather History Date:

Sunday, March 16, 2014

  Actual Average Record
Temperature  
Mean Temperature 73 °F 66 °F  
Max Temperature 85 °F 77 °F 90 °F (1975)
Min Temperature 60 °F 55 °F 39 °F (1988)
Degree Days  
Heating Degree Days 0 2  
Month to date heating degree days 27 46  
Since 1 July heating degree days 333 535  
Cooling Degree Days 8 3  
Month to date cooling degree days 40 47  
Year to date cooling degree days 208 145  
Growing Degree Days 22 (Base 50)    
Moisture  
Dew Point 60 °F    
Average Humidity 67    
Maximum Humidity 97    
Minimum Humidity 37    
Precipitation  
Precipitation 0.00 in 0.11 in 5.08 in (1969)
Month to date precipitation 0.26 1.67  
Year to date precipitation 7.32 6.47  
Sea Level Pressure  
Sea Level Pressure 29.91 in    
Wind  
Wind Speed 11 mph (South)    
Max Wind Speed 25 mph    
Max Gust Speed 33 mph    
Visibility 10 miles    
Events      
T = Trace of Precipitation, MM = Missing Value Source: NWS Daily Summary

Daily Weather History Graph

Daily Weather History Graph

Search for Another Location

Airport:

Trip Planner

Search our weather history database for the weather conditions in past years. The results will help you decide how hot, cold, wet, or windy it might be!

Date:

Astronomy

Mar. 16, 2014 Rise Set
Actual Time 7:31 AM EDT 7:31 PM EDT
Civil Twilight 7:07 AM EDT 7:55 PM EDT
Nautical Twilight 6:40 AM EDT 8:22 PM EDT
Astronomical Twilight 6:13 AM EDT 8:49 PM EDT
Moon 7:43 PM EDT (3/16) 7:15 AM EDT (3/16)
Length of Visible Light 12h 47m
Length of Day
12h 00m
Full, 100% of the Moon is Illuminated
Mar 16
Full
Mar 16
Full
Mar 23
Last Quarter
Mar 30
New
Apr 7
First Quarter

Hourly Weather History & Observations

Time (EDT) Temp. Heat Index Dew Point Humidity Pressure Visibility Wind Dir Wind Speed Gust Speed Precip Events Conditions
12:53 AM 69.1 °F - 61.0 °F 75% 30.05 in 10.0 mi SE 6.9 mph - N/A   Clear
1:53 AM 68.0 °F - 62.1 °F 81% 30.04 in 10.0 mi SE 5.8 mph - N/A   Clear
2:53 AM 68.0 °F - 62.1 °F 81% 30.03 in 10.0 mi SSE 5.8 mph - N/A   Clear
3:53 AM 64.9 °F - 62.1 °F 90% 30.01 in 10.0 mi South 4.6 mph - N/A   Clear
4:53 AM 62.1 °F - 60.1 °F 93% 30.00 in 10.0 mi SSW 4.6 mph - N/A   Clear
5:53 AM 62.1 °F - 59.0 °F 90% 29.99 in 10.0 mi SSW 4.6 mph - N/A   Clear
6:53 AM 61.0 °F - 59.0 °F 93% 29.99 in 10.0 mi South 4.6 mph - N/A   Clear
7:53 AM 62.1 °F - 57.9 °F 86% 30.00 in 10.0 mi South 4.6 mph - N/A   Partly Cloudy
8:53 AM 66.9 °F - 60.1 °F 79% 29.99 in 10.0 mi South 8.1 mph - N/A   Clear
9:53 AM 73.9 °F - 59.0 °F 59% 29.97 in 10.0 mi SSE 12.7 mph - N/A   Clear
10:53 AM 77.0 °F - 57.0 °F 50% 29.97 in 10.0 mi South 16.1 mph 27.6 mph N/A   Clear
11:53 AM 80.1 °F 80.1 °F 55.0 °F 42% 29.94 in 10.0 mi SSE 18.4 mph 27.6 mph N/A   Partly Cloudy
12:53 PM 82.0 °F 81.6 °F 55.9 °F 41% 29.91 in 10.0 mi South 11.5 mph 21.9 mph N/A   Partly Cloudy
1:53 PM 82.9 °F 82.4 °F 57.0 °F 41% 29.88 in 10.0 mi South 23.0 mph 29.9 mph N/A   Clear
2:53 PM 84.9 °F 83.9 °F 57.0 °F 38% 29.85 in 10.0 mi South 17.3 mph 23.0 mph N/A   Clear
3:53 PM 84.0 °F 83.0 °F 55.9 °F 38% 29.83 in 10.0 mi South 18.4 mph - N/A   Clear
4:53 PM 82.9 °F 82.1 °F 55.9 °F 39% 29.81 in 10.0 mi SSW 17.3 mph 26.5 mph N/A   Clear
5:53 PM 82.0 °F 81.4 °F 55.0 °F 39% 29.80 in 10.0 mi South 13.8 mph - N/A   Clear
6:53 PM 77.0 °F - 64.9 °F 66% 29.81 in 10.0 mi SSE 12.7 mph - N/A   Clear
7:53 PM 75.0 °F - 64.0 °F 69% 29.81 in 10.0 mi SSE 12.7 mph - N/A   Clear
8:53 PM 73.0 °F - 64.0 °F 73% 29.81 in 10.0 mi SSE 11.5 mph - N/A   Clear
9:53 PM 73.0 °F - 63.0 °F 71% 29.82 in 10.0 mi South 10.4 mph - N/A   Clear
10:53 PM 72.0 °F - 61.0 °F 68% 29.83 in 10.0 mi South 12.7 mph - N/A   Clear
11:53 PM 72.0 °F - 62.1 °F 71% 29.81 in 10.0 mi South 12.7 mph - N/A   Clear